This is the latest recevied weather packets stored in our database for station/object K0CVS. If no packets are shown the sender has not sent any weather packets the latest 1 day(s).
| Time | Temp. | Humidity | Pressure | Rain* | Wind** | Luminosity | Snow |
|---|---|---|---|---|---|---|---|
| 1777991852 | 8.89° C | 91% | 1012.5 hPa | 0 mm | 0.45 m/s, 302° | 54 W/m² | - |
| 1777991550 | 8.89° C | 91% | 1012.1 hPa | 0 mm | 0.89 m/s, 179° | 49 W/m² | - |
| 1777991255 | 8.89° C | 91% | 1012.6 hPa | 0 mm | 0 m/s | 30 W/m² | - |
| 1777990944 | 8.89° C | 91% | 1012.8 hPa | 0 mm | 0 m/s | 29 W/m² | - |
| 1777990641 | 8.89° C | 91% | 1012.9 hPa | 1.78 mm | 0 m/s | 35 W/m² | - |
| 1777990338 | 8.89° C | 91% | 1012.4 hPa | 0 mm | 0 m/s | 52 W/m² | - |
| 1777990034 | 8.89° C | 91% | 1012.3 hPa | 0 mm | 0 m/s | 27 W/m² | - |
| 1777989731 | 8.89° C | 91% | 1012 hPa | 0 mm | 0 m/s | 47 W/m² | - |
| 1777989428 | 8.89° C | 90% | 1012.5 hPa | 0 mm | 0 m/s | 22 W/m² | - |
| 1777989124 | 8.89° C | 90% | 1012.3 hPa | 0 mm | 0 m/s | 20 W/m² | - |
| 1777988820 | 8.89° C | 90% | 1012.4 hPa | 0 mm | 0 m/s | 16 W/m² | - |
| 1777988518 | 8.89° C | 89% | 1012.4 hPa | 0 mm | 0 m/s | 13 W/m² | - |
| 1777988214 | 8.89° C | 89% | 1012.2 hPa | 0 mm | 0.45 m/s, 191° | 15 W/m² | - |
| 1777987911 | 8.89° C | 88% | 1012.8 hPa | 0 mm | 0 m/s | 9 W/m² | - |
| 1777987606 | 8.89° C | 86% | 1012.3 hPa | 0 mm | 0 m/s | 8 W/m² | - |
| 1777987304 | 9.44° C | 84% | 1011.7 hPa | 0 mm | 0 m/s | 11 W/m² | - |
| 1777987001 | 9.44° C | 82% | 1011.7 hPa | 0 mm | 0 m/s | 18 W/m² | - |
| 1777986699 | 9.44° C | 80% | 1011.6 hPa | 0 mm | 0 m/s | 18 W/m² | - |
| 1777986397 | 9.44° C | 80% | 1012.6 hPa | 0 mm | 0 m/s | 8 W/m² | - |
| 1777986095 | 9.44° C | 80% | 1012.4 hPa | 0 mm | 0 m/s | 2 W/m² | - |
| 1777985791 | 9.44° C | 78% | 1010.8 hPa | 0 mm | 0 m/s | 4 W/m² | - |
| 1777985488 | 9.44° C | 77% | 1010.4 hPa | 0 mm | 0 m/s | 9 W/m² | - |
| 1777985185 | 9.44° C | 77% | 1010.4 hPa | 0 mm | 0 m/s | 18 W/m² | - |
| 1777984881 | 9.44° C | 77% | 1010.2 hPa | 1.78 mm | 0 m/s | 21 W/m² | - |
| 1777984586 | 9.44° C | 80% | 1010.1 hPa | 1.78 mm | 0.45 m/s, 246° | 23 W/m² | - |
* Rain latest hour (hover to see other rain measurements)
** Current wind speed in m/s (hover to see current wind gust speed)